This is the latest recevied weather packets stored in our database for station/object SP8IZA-1. If no packets are shown the sender has not sent any weather packets the latest 1 day(s).
| Time | Temp. | Humidity | Pressure | Rain* | Wind** | Luminosity | Snow |
|---|---|---|---|---|---|---|---|
| 1778053691 | 24.44° C | 37% | 1003.6 hPa | - | - | - | - |
| 1778053090 | 23.33° C | 38% | 1003.6 hPa | - | - | - | - |
| 1778052489 | 22.78° C | 38% | 1003.7 hPa | - | - | - | - |
| 1778052188 | 22.78° C | 38% | 1003.7 hPa | - | - | - | - |
| 1778051888 | 22.78° C | 38% | 1003.7 hPa | - | - | - | - |
| 1778051287 | 21.67° C | 38% | 1003.7 hPa | - | - | - | - |
| 1778050986 | 21.67° C | 38% | 1003.7 hPa | - | - | - | - |
| 1778050686 | 21.67° C | 38% | 1003.7 hPa | - | - | - | - |
| 1778050085 | 21.11° C | 39% | 1003.7 hPa | - | - | - | - |
| 1778049484 | 20.56° C | 39% | 1003.8 hPa | - | - | - | - |
| 1778048883 | 20.56° C | 39% | 1003.8 hPa | - | - | - | - |
| 1778048582 | 20° C | 39% | 1003.7 hPa | - | - | - | - |
| 1778048282 | 19.44° C | 40% | 1003.8 hPa | - | - | - | - |
| 1778047981 | 18.89° C | 40% | 1003.8 hPa | - | - | - | - |
| 1778047681 | 18.33° C | 40% | 1003.8 hPa | - | - | - | - |
| 1778047080 | 17.78° C | 40% | 1003.8 hPa | - | - | - | - |
| 1778046479 | 17.22° C | 41% | 1003.9 hPa | - | - | - | - |
| 1778046178 | 16.67° C | 41% | 1004 hPa | - | - | - | - |
| 1778045878 | 16.11° C | 41% | 1004 hPa | - | - | - | - |
| 1778045277 | 15.56° C | 41% | 1003.9 hPa | - | - | - | - |
| 1778044976 | 15° C | 42% | 1004 hPa | - | - | - | - |
| 1778044676 | 14.44° C | 42% | 1004 hPa | - | - | - | - |
| 1778044075 | 13.33° C | 42% | 1004.2 hPa | - | - | - | - |
| 1778043474 | 12.78° C | 43% | 1004.2 hPa | - | - | - | - |
| 1778043173 | 12.22° C | 43% | 1004.2 hPa | - | - | - | - |
* Rain since midnight (hover to see other rain measurements)
** Current wind speed in m/s (hover to see current wind gust speed)